Time,TemperatureF,DewpointF,PressureIn,WindDirection,WindDirectionDegrees,WindSpeedMPH,WindSpeedGustMPH,Humidity,HourlyPrecipIn,Conditions,Clouds,dailyrainin,SoftwareType,DateUTC
2013-02-07 14:34:00,27.2,-0.6,30.41,NW,313,2.9,6.1,29,0.02,n/a,n/a,-99.99,Henriksen +1-Wire,2013-02-07 19:34:00,
2013-02-07 14:36:00,27.1,-0.6,30.40,NW,310,3.0,6.1,29,0.02,n/a,n/a,-99.99,Henriksen +1-Wire,2013-02-07 19:36:00,
2013-02-07 14:38:00,27.2,-0.5,30.41,NW,306,4.5,7.2,29,0.02,n/a,n/a,-99.99,Henriksen +1-Wire,2013-02-07 19:38:00,
2013-02-07 14:44:00,28.2,0.7,30.41,WNW,292,3.7,8.3,30,0.02,n/a,n/a,-99.99,Henriksen +1-Wire,2013-02-07 19:44:00,
2013-02-07 14:50:00,28.2,0.6,30.40,WNW,300,2.0,7.7,30,0.02,n/a,n/a,-99.99,Henriksen +1-Wire,2013-02-07 19:50:00,
2013-02-07 14:56:00,27.9,0.2,30.41,NW,319,2.3,4.7,30,0.02,n/a,n/a,-99.99,Henriksen +1-Wire,2013-02-07 19:56:00,
2013-02-07 15:02:00,27.2,-0.4,30.41,NW,308,3.3,6.8,30,0.02,n/a,n/a,-99.99,Henriksen +1-Wire,2013-02-07 20:02:00,
2013-02-07 15:08:00,26.9,0.3,30.41,NW,305,2.2,6.8,31,0.02,n/a,n/a,-99.99,Henriksen +1-Wire,2013-02-07 20:08:00,
2013-02-07 15:14:00,26.7,-0.4,30.41,WNW,299,2.4,5.4,30,0.02,n/a,n/a,-99.99,Henriksen +1-Wire,2013-02-07 20:14:00,
2013-02-07 15:20:00,26.8,-0.6,30.41,NW,319,1.3,4.3,30,0.02,n/a,n/a,-99.99,Henriksen +1-Wire,2013-02-07 20:20:00,
2013-02-07 15:26:00,26.5,-0.8,30.41,NW,326,2.6,4.9,30,0.02,n/a,n/a,-99.99,Henriksen +1-Wire,2013-02-07 20:26:00,
2013-02-07 15:32:00,27.0,-0.7,30.41,WNW,299,1.4,5.0,29,0.00,n/a,n/a,-99.99,Henriksen +1-Wire,2013-02-07 20:32:00,
2013-02-07 15:38:00,27.4,-0.1,30.41,WNW,296,1.0,4.0,30,0.00,n/a,n/a,-99.99,Henriksen +1-Wire,2013-02-07 20:38:00,
2013-02-07 15:44:00,27.4,-0.1,30.41,NW,325,1.0,2.9,30,0.00,n/a,n/a,-99.99,Henriksen +1-Wire,2013-02-07 20:44:00,
2013-02-07 15:50:00,26.9,-0.8,30.41,NW,317,1.2,5.3,29,0.00,n/a,n/a,-99.99,Henriksen +1-Wire,2013-02-07 20:50:00,
2013-02-07 15:56:00,26.7,-0.9,30.41,NW,305,1.9,5.7,30,0.00,n/a,n/a,-99.99,Henriksen +1-Wire,2013-02-07 20:56:00,
2013-02-07 16:02:00,26.5,-1.2,30.41,NW,324,1.6,3.9,29,0.00,n/a,n/a,-99.99,Henriksen +1-Wire,2013-02-07 21:02:00,
2013-02-07 16:08:00,26.6,-0.3,30.41,NW,319,2.4,4.0,30,0.00,n/a,n/a,-99.99,Henriksen +1-Wire,2013-02-07 21:08:00,
2013-02-07 16:14:00,26.4,-1.3,30.41,NW,324,2.1,5.7,29,0.00,n/a,n/a,-99.99,Henriksen +1-Wire,2013-02-07 21:14:00,
2013-02-07 16:20:00,26.6,-0.4,30.41,NNW,328,1.1,5.7,30,0.00,n/a,n/a,-99.99,Henriksen +1-Wire,2013-02-07 21:20:00,
2013-02-07 16:26:00,26.5,-0.6,30.41,NW,326,2.6,4.1,30,0.00,n/a,n/a,-99.99,Henriksen +1-Wire,2013-02-07 21:26:00,
2013-02-07 16:32:00,27.2,-0.2,30.41,NW,324,2.9,4.7,30,0.00,n/a,n/a,-99.99,Henriksen +1-Wire,2013-02-07 21:32:00,
2013-02-07 16:38:00,27.6,0.2,30.41,NW,323,1.5,4.5,30,0.00,n/a,n/a,-99.99,Henriksen +1-Wire,2013-02-07 21:38:00,
2013-02-07 16:44:00,27.7,0.3,30.41,NW,322,2.7,4.5,30,0.00,n/a,n/a,-99.99,Henriksen +1-Wire,2013-02-07 21:44:00,
2013-02-07 16:50:00,27.6,1.0,30.41,NW,321,3.4,5.8,31,0.00,n/a,n/a,-99.99,Henriksen +1-Wire,2013-02-07 21:50:00,
2013-02-07 16:56:00,27.6,0.3,30.41,NW,318,1.7,5.8,30,0.00,n/a,n/a,-99.99,Henriksen +1-Wire,2013-02-07 21:56:00,
2013-02-07 17:02:00,27.4,0.1,30.41,NW,317,1.7,3.6,30,0.00,n/a,n/a,-99.99,Henriksen +1-Wire,2013-02-07 22:02:00,
2013-02-07 17:08:00,27.3,0.1,30.41,NW,321,1.6,2.9,30,0.00,n/a,n/a,-99.99,Henriksen +1-Wire,2013-02-07 22:08:00,
2013-02-07 17:14:00,27.3,0.6,30.41,NW,326,0.9,3.5,31,0.00,n/a,n/a,-99.99,Henriksen +1-Wire,2013-02-07 22:14:00,
2013-02-07 17:20:00,27.0,1.1,30.41,NW,310,0.6,2.3,32,0.00,n/a,n/a,-99.99,Henriksen +1-Wire,2013-02-07 22:20:00,
2013-02-07 17:26:00,25.4,0.4,30.41,NW,326,0.8,1.9,33,0.00,n/a,n/a,-99.99,Henriksen +1-Wire,2013-02-07 22:26:00,
2013-02-07 17:32:00,25.1,-0.8,30.42,NNW,329,1.9,3.3,32,0.00,n/a,n/a,-99.99,Henriksen +1-Wire,2013-02-07 22:32:00,
2013-02-07 17:38:00,25.0,-0.5,30.42,NW,318,0.8,3.3,32,0.00,n/a,n/a,-99.99,Henriksen +1-Wire,2013-02-07 22:38:00,
2013-02-07 17:44:00,24.7,0.2,30.42,WNW,303,0.6,2.8,34,0.00,n/a,n/a,-99.99,Henriksen +1-Wire,2013-02-07 22:44:00,
2013-02-07 17:50:00,24.6,0.7,30.42,NW,312,1.1,1.9,35,0.00,n/a,n/a,-99.99,Henriksen +1-Wire,2013-02-07 22:50:00,
2013-02-07 17:56:00,24.5,0.0,30.43,West,266,0.0,2.2,34,0.00,n/a,n/a,-99.99,Henriksen +1-Wire,2013-02-07 22:56:00,
2013-02-07 18:02:00,24.4,0.6,30.43,NW,313,1.1,2.0,35,0.00,n/a,n/a,-99.99,Henriksen +1-Wire,2013-02-07 23:02:00,
2013-02-07 18:08:00,25.7,1.5,30.43,WNW,292,0.8,2.2,34,0.00,n/a,n/a,-99.99,Henriksen +1-Wire,2013-02-07 23:08:00,
2013-02-07 18:14:00,25.9,1.7,30.43,WNW,289,1.1,3.2,34,0.00,n/a,n/a,-99.99,Henriksen +1-Wire,2013-02-07 23:14:00,
2013-02-07 18:20:00,25.4,1.2,30.43,WNW,291,0.7,3.2,34,0.00,n/a,n/a,-99.99,Henriksen +1-Wire,2013-02-07 23:20:00,
2013-02-07 18:26:00,24.9,0.3,30.43,WNW,290,0.4,2.2,34,0.00,n/a,n/a,-99.99,Henriksen +1-Wire,2013-02-07 23:26:00,
2013-02-07 18:32:00,24.7,1.1,30.44,ENE,71,0.5,1.9,35,0.00,n/a,n/a,-99.99,Henriksen +1-Wire,2013-02-07 23:32:00,
2013-02-07 18:38:00,24.7,1.1,30.45,NNE,25,0.7,2.9,35,0.00,n/a,n/a,-99.99,Henriksen +1-Wire,2013-02-07 23:38:00,
2013-02-07 18:44:00,24.6,0.4,30.45,WSW,257,0.9,2.9,34,0.00,n/a,n/a,-99.99,Henriksen +1-Wire,2013-02-07 23:44:00,
2013-02-07 18:50:00,24.6,0.3,30.45,WNW,293,0.6,2.6,34,0.00,n/a,n/a,-99.99,Henriksen +1-Wire,2013-02-07 23:50:00,
2013-02-07 18:56:00,24.7,-0.6,30.45,NNW,328,1.2,2.6,33,0.00,n/a,n/a,-99.99,Henriksen +1-Wire,2013-02-07 23:56:00,
2013-02-07 19:02:00,24.8,-0.2,30.45,ESE,108,1.1,2.9,33,0.00,n/a,n/a,-99.99,Henriksen +1-Wire,2013-02-08 00:02:00,
2013-02-07 19:08:00,24.7,-1.0,30.45,WNW,290,1.6,3.3,32,0.00,n/a,n/a,-99.99,Henriksen +1-Wire,2013-02-08 00:08:00,
2013-02-07 19:14:00,24.6,-1.9,30.44,NNW,334,2.1,4.2,31,0.00,n/a,n/a,-99.99,Henriksen +1-Wire,2013-02-08 00:14:00,
2013-02-07 19:20:00,24.8,-1.5,30.44,NE,35,1.0,4.2,31,0.00,n/a,n/a,-99.99,Henriksen +1-Wire,2013-02-08 00:20:00,
2013-02-07 19:26:00,25.6,-0.2,30.44,WNW,288,0.9,2.9,32,0.00,n/a,n/a,-99.99,Henriksen +1-Wire,2013-02-08 00:26:00,
2013-02-07 19:32:00,25.8,-0.3,30.45,NNW,344,1.1,2.2,32,0.00,n/a,n/a,-99.99,Henriksen +1-Wire,2013-02-08 00:32:00,
2013-02-07 19:38:00,25.7,-0.4,30.45,NNW,333,1.1,2.6,31,0.00,n/a,n/a,-99.99,Henriksen +1-Wire,2013-02-08 00:38:00,
2013-02-07 19:44:00,25.8,-0.4,30.45,NW,305,0.8,2.6,31,0.00,n/a,n/a,-99.99,Henriksen +1-Wire,2013-02-08 00:44:00,
2013-02-07 19:50:00,25.7,-0.2,30.45,NNE,23,0.1,3.5,32,0.00,n/a,n/a,-99.99,Henriksen +1-Wire,2013-02-08 00:50:00,
2013-02-07 19:56:00,25.7,-0.4,30.45,NW,312,0.7,2.9,31,0.00,n/a,n/a,-99.99,Henriksen +1-Wire,2013-02-08 00:56:00,
2013-02-07 20:02:00,25.7,0.2,30.45,NW,319,1.0,1.9,32,0.00,n/a,n/a,-99.99,Henriksen +1-Wire,2013-02-08 01:02:00,
2013-02-07 20:08:00,25.8,0.4,30.44,WNW,296,1.8,4.2,33,0.00,n/a,n/a,-99.99,Henriksen +1-Wire,2013-02-08 01:08:00,
2013-02-07 20:14:00,25.6,-0.1,30.44,WNW,295,1.4,4.2,32,0.00,n/a,n/a,-99.99,Henriksen +1-Wire,2013-02-08 01:14:00,
2013-02-07 20:20:00,25.4,-0.9,30.45,NNW,328,0.5,3.5,31,0.00,n/a,n/a,-99.99,Henriksen +1-Wire,2013-02-08 01:20:00,
2013-02-07 20:26:00,24.9,-1.6,30.45,ENE,75,2.2,3.2,31,0.00,n/a,n/a,-99.99,Henriksen +1-Wire,2013-02-08 01:26:00,
2013-02-07 20:32:00,25.3,-1.5,30.45,NNW,333,1.2,3.2,30,0.00,n/a,n/a,-99.99,Henriksen +1-Wire,2013-02-08 01:32:00,
2013-02-07 20:38:00,25.6,-0.6,30.45,NW,326,1.0,3.1,31,0.00,n/a,n/a,-99.99,Henriksen +1-Wire,2013-02-08 01:38:00,
2013-02-07 20:44:00,25.9,0.6,30.45,WNW,293,1.1,1.9,33,0.00,n/a,n/a,-99.99,Henriksen +1-Wire,2013-02-08 01:44:00,
2013-02-07 20:50:00,25.8,-0.6,30.44,WNW,291,0.9,2.6,31,0.00,n/a,n/a,-99.99,Henriksen +1-Wire,2013-02-08 01:50:00,
2013-02-07 20:56:00,25.4,-1.1,30.45,WNW,296,1.0,2.6,31,0.00,n/a,n/a,-99.99,Henriksen +1-Wire,2013-02-08 01:56:00,
2013-02-07 21:02:00,25.2,-0.7,30.45,East,80,1.3,2.9,32,0.00,n/a,n/a,-99.99,Henriksen +1-Wire,2013-02-08 02:02:00,
2013-02-07 21:08:00,25.8,0.0,30.44,NNE,28,1.9,5.7,32,0.00,n/a,n/a,-99.99,Henriksen +1-Wire,2013-02-08 02:08:00,
2013-02-07 21:14:00,25.6,0.5,30.45,NW,317,1.3,5.7,33,0.00,n/a,n/a,-99.99,Henriksen +1-Wire,2013-02-08 02:14:00,
2013-02-07 21:20:00,25.7,0.9,30.45,ENE,71,1.0,5.8,33,0.00,n/a,n/a,-99.99,Henriksen +1-Wire,2013-02-08 02:20:00,
2013-02-07 21:26:00,25.9,2.1,30.45,ENE,71,1.8,5.8,35,0.00,n/a,n/a,-99.99,Henriksen +1-Wire,2013-02-08 02:26:00,
2013-02-07 21:32:00,25.9,2.4,30.45,NNW,337,1.2,4.2,36,0.00,n/a,n/a,-99.99,Henriksen +1-Wire,2013-02-08 02:32:00,
2013-02-07 21:38:00,25.9,3.7,30.44,NNW,341,1.2,4.0,38,0.00,n/a,n/a,-99.99,Henriksen +1-Wire,2013-02-08 02:38:00,
2013-02-07 21:44:00,25.9,3.8,30.45,NNW,336,1.4,4.0,38,0.00,n/a,n/a,-99.99,Henriksen +1-Wire,2013-02-08 02:44:00,
2013-02-07 21:50:00,25.9,4.3,30.44,NNW,331,0.9,3.2,39,0.00,n/a,n/a,-99.99,Henriksen +1-Wire,2013-02-08 02:50:00,
2013-02-07 21:56:00,25.9,4.9,30.43,NW,324,1.0,2.3,40,0.00,n/a,n/a,-99.99,Henriksen +1-Wire,2013-02-08 02:56:00,
2013-02-07 22:02:00,25.9,4.9,30.43,WSW,247,0.7,3.0,40,0.00,n/a,n/a,-99.99,Henriksen +1-Wire,2013-02-08 03:02:00,
2013-02-07 22:08:00,26.0,5.3,30.43,WSW,252,1.0,3.0,40,0.00,n/a,n/a,-99.99,Henriksen +1-Wire,2013-02-08 03:08:00,
2013-02-07 22:14:00,25.9,5.3,30.43,NNW,330,1.1,2.2,41,0.00,n/a,n/a,-99.99,Henriksen +1-Wire,2013-02-08 03:14:00,
2013-02-07 22:20:00,25.5,5.0,30.43,WNW,297,1.1,4.5,41,0.00,n/a,n/a,-99.99,Henriksen +1-Wire,2013-02-08 03:20:00,
2013-02-07 22:26:00,25.2,4.6,30.43,ENE,78,1.0,4.8,41,0.00,n/a,n/a,-99.99,Henriksen +1-Wire,2013-02-08 03:26:00,
2013-02-07 22:32:00,24.9,5.0,30.43,West,276,0.9,4.8,42,0.00,n/a,n/a,-99.99,Henriksen +1-Wire,2013-02-08 03:32:00,
2013-02-07 22:38:00,24.8,4.9,30.43,WNW,295,0.4,2.6,42,0.00,n/a,n/a,-99.99,Henriksen +1-Wire,2013-02-08 03:38:00,
2013-02-07 22:44:00,24.6,5.0,30.43,NW,318,1.2,2.6,42,0.00,n/a,n/a,-99.99,Henriksen +1-Wire,2013-02-08 03:44:00,
2013-02-07 22:50:00,24.6,5.4,30.43,NNW,327,0.9,2.9,43,0.00,n/a,n/a,-99.99,Henriksen +1-Wire,2013-02-08 03:50:00,
2013-02-07 22:56:00,24.6,5.8,30.43,NW,308,0.1,2.9,44,0.00,n/a,n/a,-99.99,Henriksen +1-Wire,2013-02-08 03:56:00,
2013-02-07 23:02:00,24.6,6.2,30.43,NNW,329,0.0,1.3,45,0.00,n/a,n/a,-99.99,Henriksen +1-Wire,2013-02-08 04:02:00,
2013-02-07 23:08:00,24.6,6.6,30.42,WNW,295,0.9,1.7,45,0.00,n/a,n/a,-99.99,Henriksen +1-Wire,2013-02-08 04:08:00,
2013-02-07 23:14:00,24.7,6.8,30.43,ENE,68,0.4,1.9,46,0.00,n/a,n/a,-99.99,Henriksen +1-Wire,2013-02-08 04:14:00,
2013-02-07 23:20:00,24.8,7.3,30.43,ENE,73,0.6,1.6,47,0.00,n/a,n/a,-99.99,Henriksen +1-Wire,2013-02-08 04:20:00,
2013-02-07 23:26:00,24.8,7.7,30.43,NE,41,1.2,2.0,47,0.00,n/a,n/a,-99.99,Henriksen +1-Wire,2013-02-08 04:26:00,
2013-02-07 23:32:00,24.8,7.8,30.44,WNW,285,0.0,2.0,48,0.00,n/a,n/a,-99.99,Henriksen +1-Wire,2013-02-08 04:32:00,
2013-02-07 23:38:00,24.8,8.1,30.44,NW,304,0.3,1.0,48,0.00,n/a,n/a,-99.99,Henriksen +1-Wire,2013-02-08 04:38:00,
2013-02-07 23:44:00,24.9,8.7,30.44,NE,45,0.1,1.9,49,0.00,n/a,n/a,-99.99,Henriksen +1-Wire,2013-02-08 04:44:00,
2013-02-07 23:50:00,24.8,8.9,30.43,NNE,25,0.5,1.9,50,0.00,n/a,n/a,-99.99,Henriksen +1-Wire,2013-02-08 04:50:00,
2013-02-07 23:56:00,24.8,8.9,30.43,NW,322,0.7,1.9,50,0.00,n/a,n/a,-99.99,Henriksen +1-Wire,2013-02-08 04:56:00,